Location: Trani
(41.2830°N, 16.4170°E)
Time: 17:26:56
(UTC+02:00)

N. Korean satellite - Pass Details

Date: 03 August 2021
Orbit: 448 x 499 km, 97.3° (Epoch: 16 September)

Event Time Altitude Azimuth Distance (km) Brightness Sun altitude
Rises 05:03:29 0° 37° (NE) 2,540 11.7 -8.8°
Reaches altitude 10° 05:07:28 10° 82° (E) 1,635 10.5 -8.1°
Maximum altitude 05:07:57 10° 90° (E) 1,618 10.2 -8.1°
Drops below altitude 10° 05:08:27 10° 98° (E) 1,630 10.0 -8.0°
Sets 05:12:19 0° 143° (SE) 2,479 10.2 -7.4°
